Tracking 29892 objects as of 21-Nov-2024
HD Live streaming from Space Station
objects crossing your sky now

STARLINK-31526

Track STARLINK-31526 now!
10-day predictions
STARLINK-31526 is classified as:


NORAD ID: 59016
Int'l Code: 2024-036U
Perigee: 454.0 km
Apogee: 454.8 km
Inclination: 53.2 °
Period: 93.5 minutes
Semi major axis: 6825 km
RCS: Unknown
Launch date: February 23, 2024
Source: United States (US)
Launch site: AIR FORCE WESTERN TEST RANGE (AFWTR)
Your satellite tracking list
Your tracking list is empty




NASA's NSSDC Master Catalog

Two Line Element Set (TLE):
1 59016U 24036U   24325.74990680  .00000138  00000-0  13431-4 0  9993
2 59016  53.1591  97.2711 0000603 132.7958 227.3098 15.39614340 43079
Source of the keplerian elements: AFSPC